GFSNE_850_spd_072.txt.gz
Wind_Speed
21 24 21 16 17 16 21 20 21 24 26 24 24 22 23 24 27 29 31 33 34 32 34 33 34 36 34 32 33 30 30 26 26 25 26 26 27 28
24 21 17 20 13 16 19 21 21 24 30 26 25 25 24 27 29 32 31 31 31 31 32 32 32 33 35 36 35 33 31 30 29 26 26 25 25 26
16 20 20 13 18 20 22 21 23 23 28 31 27 27 28 30 28 28 30 32 34 35 27 30 34 34 34 31 31 32 26 24 25 26 23 23 23 24
19 19 16 12 17 20 22 24 27 26 28 34 34 33 34 33 32 32 32 35 33 28 31 31 31 29 27 28 33 26 24 22 20 21 22 23 23 22
15 12 12 17 20 22 23 25 27 28 29 32 37 36 35 33 35 36 34 33 29 30 28 23 21 24 29 32 29 24 25 22 21 20 18 19 20 20
11 14 20 21 23 26 29 29 30 31 30 31 32 33 32 32 31 32 33 32 28 24 24 26 27 26 27 26 23 27 27 23 22 23 26 27 23 23
14 15 17 20 24 26 28 33 37 40 42 43 45 44 38 33 31 29 27 30 26 24 27 23 26 22 22 23 25 25 25 22 22 25 28 24 21 22
18 20 22 25 28 30 31 32 34 38 42 43 41 37 39 36 35 34 34 29 30 33 26 24 23 25 28 30 22 25 26 26 28 27 25 21 20 20
20 21 22 23 24 28 31 33 35 35 35 37 43 44 45 43 38 33 34 33 33 30 20 25 27 30 27 21 22 25 25 26 27 26 22 21 20 22
19 21 23 26 28 31 36 40 42 44 42 33 35 39 41 41 38 35 34 33 31 26 24 27 29 25 22 22 24 25 24 24 23 22 21 21 22 23
24 25 27 29 30 32 37 41 45 47 47 46 36 36 34 35 40 34 33 33 31 33 29 29 25 24 23 22 20 22 19 19 19 20 20 21 22 23
23 24 26 28 30 31 32 36 42 44 44 44 44 43 42 38 33 42 39 37 31 35 32 26 23 21 23 21 15 13 20 20 21 21 24 25 22 22
25 27 28 28 30 31 30 32 34 35 35 35 36 36 36 36 31 31 37 30 27 34 25 20 22 23 20 25 30 26 21 21 23 24 22 19 17 18
27 28 28 29 31 30 28 27 30 28 29 32 33 33 32 29 25 30 27 20 18 20 15 14 22 23 23 27 32 26 21 21 19 22 17 14 15 18
25 25 27 29 28 29 29 31 27 25 31 32 32 31 27 26 25 28 23 18 18 19 20 20 23 25 26 26 26 25 25 22 20 16 15 16 16 15
24 26 26 25 27 31 30 28 25 26 26 31 32 30 28 24 25 28 19 21 22 26 25 26 25 24 24 22 19 19 16 19 18 16 18 12 14 12
26 25 24 23 31 32 31 27 27 25 24 23 24 28 27 24 28 20 18 23 26 26 25 23 19 18 20 18 19 18 20 19 16 18 19 18 13 11
22 21 21 26 27 30 31 30 28 27 26 25 22 25 21 20 25 18 21 26 28 26 23 22 17 17 16 17 17 20 20 14 16 18 18 15 17 13
16 18 21 25 26 28 28 28 29 28 28 25 24 19 16 11 10 12 18 23 27 26 24 21 16 17 17 19 15 15 13 12 14 9 11 15 18 15
16 18 21 24 27 27 29 28 27 28 28 25 23 22 17 14 16 17 19 24 26 24 22 20 16 18 18 19 17 17 17 18 13 11 13 12 11 8
17 21 24 24 25 27 26 27 26 26 27 26 22 22 17 12 17 16 18 25 24 22 23 19 14 16 18 18 18 20 8 10 9 10 11 11 11 6
21 24 24 23 24 25 26 26 26 26 24 25 22 21 22 13 8 13 17 21 20 20 19 16 14 14 15 15 13 7 11 9 10 9 8 9 9 8
24 23 22 25 24 23 24 26 26 25 25 23 25 23 23 20 13 13 16 20 17 17 18 17 16 12 11 11 11 11 12 9 9 8 10 14 6 9

GFSNE_850_spd_075.txt.gz
Wind_Speed
31 28 24 26 23 24 20 22 21 28 31 30 28 23 22 23 25 24 23 27 30 33 34 36 35 32 32 33 33 31 29 28 28 26 25 25 25 26
30 23 20 24 21 23 20 18 23 26 31 29 27 27 26 26 25 29 29 30 31 33 35 35 33 33 30 29 27 26 27 31 26 25 23 23 24 24
21 21 24 22 22 19 16 21 24 25 29 33 33 33 32 29 29 30 33 35 37 36 36 38 35 32 29 27 25 26 26 26 23 22 21 21 22 22
19 22 21 19 17 17 17 21 23 25 30 36 36 33 33 32 30 28 28 29 31 37 40 33 29 28 26 23 25 27 23 23 23 22 23 20 19 19
18 18 15 12 14 15 20 23 24 26 29 34 39 39 40 36 35 34 33 35 36 34 30 30 33 27 24 26 28 24 22 23 23 23 24 23 24 23
14 11 10 13 17 22 24 26 28 30 31 35 41 43 41 42 43 43 42 36 34 29 29 28 32 32 30 32 26 23 24 26 23 23 23 26 26 24
9 12 14 16 18 18 19 20 23 26 29 35 41 44 47 46 45 43 36 35 36 33 36 36 29 31 30 27 27 26 26 27 24 23 23 26 24 22
16 17 20 23 26 29 30 30 28 30 33 32 32 32 37 38 38 41 42 39 35 36 29 31 27 28 29 26 29 30 25 23 26 27 27 25 23 20
15 19 21 22 24 27 30 32 34 35 37 39 42 43 43 40 36 37 41 38 39 33 31 32 29 31 28 30 30 20 20 25 26 24 23 23 21 22
17 20 22 24 27 31 34 34 35 37 38 38 40 43 41 38 35 36 36 41 38 35 32 34 30 31 28 28 21 18 22 23 22 21 20 17 20 22
20 21 22 22 24 26 29 32 35 36 34 33 32 33 34 34 38 40 40 35 38 41 33 34 31 29 27 23 17 19 22 24 19 18 19 19 20 22
18 18 18 20 21 23 26 30 34 34 34 35 33 28 27 28 29 29 30 33 32 29 27 28 22 21 23 20 20 22 21 18 26 26 22 22 25 26
18 19 20 20 22 23 23 25 27 32 34 33 31 31 30 29 27 27 23 26 30 34 30 19 18 17 20 21 22 23 25 27 23 19 18 17 16 14
21 22 22 22 22 22 23 25 27 29 27 29 30 30 33 33 29 27 25 22 24 25 19 14 17 17 20 23 26 26 26 21 18 17 16 14 13 13
23 22 22 22 21 22 24 26 27 25 26 26 28 29 31 30 29 27 27 21 24 20 16 17 18 16 19 24 25 24 19 13 8 7 12 12 15 14
22 21 21 20 21 23 26 27 27 27 26 26 27 27 26 24 32 30 26 25 25 17 19 17 16 17 20 22 23 21 14 14 15 13 14 13 13 12
23 21 20 20 23 26 28 29 29 29 28 27 27 27 27 27 26 26 25 30 24 22 20 17 18 19 20 20 21 18 15 15 16 14 16 19 16 12
20 19 19 19 23 26 29 31 32 32 29 28 27 27 26 28 27 25 20 22 22 22 22 21 20 19 18 20 19 16 15 14 13 13 16 16 16 13
16 18 19 21 24 27 29 30 32 31 28 27 28 26 24 26 25 22 26 24 19 20 20 20 21 18 18 23 18 14 15 12 13 16 13 14 16 11
17 19 21 23 26 28 28 28 30 29 28 28 28 25 23 23 24 14 14 12 15 18 20 23 22 20 20 22 17 14 14 15 16 11 11 9 9 7
20 21 22 24 27 27 26 27 27 27 28 29 26 25 24 24 23 21 11 9 16 18 23 24 21 16 14 17 16 17 16 12 10 9 9 8 8 5
21 23 24 27 26 26 28 27 26 28 29 28 26 23 25 23 22 22 16 11 13 18 28 19 16 15 16 13 13 14 9 8 5 5 6 7 10 9
25 25 28 26 27 28 25 23 26 28 26 24 25 26 26 25 22 19 18 13 12 18 19 16 15 15 13 9 8 9 8 8 8 8 8 6 6 3

GFSNE_850_spd_081.txt.gz
Wind_Speed
32 35 35 31 27 27 29 28 26 23 24 28 25 25 21 19 22 22 22 23 25 26 25 22 23 26 30 33 34 36 37 33 30 25 25 26 28 26
31 34 24 25 25 27 28 26 23 25 28 25 26 23 22 24 23 25 26 28 26 26 26 29 30 31 32 33 34 36 38 34 27 26 26 24 23 23
29 27 24 24 25 26 22 23 25 26 28 27 23 21 25 26 26 26 29 30 30 30 30 29 31 33 36 37 37 38 41 35 38 28 27 27 24 24
22 24 24 27 23 21 21 22 24 22 22 25 24 24 26 25 28 30 31 32 33 33 33 33 35 37 38 39 40 42 41 41 36 30 31 29 27 26
24 23 23 22 21 20 21 20 19 20 21 25 27 27 29 31 34 36 37 38 37 36 37 37 39 40 40 41 38 37 37 38 33 33 32 30 31 29
22 22 22 21 19 19 20 21 22 23 25 28 29 31 33 34 36 39 43 43 44 42 43 43 41 39 42 36 39 38 35 39 32 34 31 31 30 29
22 22 22 21 21 21 20 22 24 24 25 28 31 34 36 37 38 40 43 45 45 44 43 40 32 35 41 42 38 34 34 29 31 32 30 28 29 27
22 21 20 21 21 20 21 23 25 27 30 32 33 35 37 37 36 36 37 37 42 37 32 34 30 32 33 36 38 32 30 30 31 30 28 29 26 25
19 19 19 21 21 22 25 26 27 29 30 32 34 32 34 32 33 34 32 33 35 34 31 38 35 37 35 32 30 29 31 29 30 29 30 26 25 25
18 18 18 19 21 23 24 26 27 27 27 27 28 28 29 29 29 29 30 33 35 34 28 34 33 35 32 28 29 27 29 28 30 28 25 25 25 24
16 17 19 21 23 24 24 24 24 24 24 25 26 26 26 26 23 25 27 29 35 35 31 31 34 29 30 29 26 25 28 27 25 24 24 24 24 23
17 18 19 20 20 22 22 24 25 25 26 26 26 25 25 25 23 20 23 26 28 33 27 25 32 28 24 28 22 18 24 21 22 22 24 25 25 27
17 17 18 18 19 20 23 23 23 25 25 26 26 26 27 26 23 21 20 23 26 32 32 29 33 28 23 29 18 11 11 15 17 20 23 26 29 25
16 17 18 19 20 20 21 21 23 24 25 25 26 27 27 27 27 25 23 23 23 29 29 26 34 28 26 26 15 13 13 13 15 19 21 21 19 19
18 20 20 20 21 19 20 21 24 24 25 26 27 28 28 28 28 28 26 25 27 28 27 27 27 28 27 19 16 15 11 11 14 15 10 11 14 14
22 21 22 23 22 21 21 22 23 24 25 26 27 28 28 28 29 27 28 28 28 28 23 22 23 22 25 18 16 14 12 11 9 10 14 14 13 13
22 23 22 20 19 20 21 22 23 25 26 26 26 27 28 29 29 27 25 28 26 28 28 23 27 25 24 20 19 18 15 14 12 12 14 14 11 12
18 17 17 18 19 20 22 23 24 25 25 25 26 27 28 29 29 28 25 25 26 26 26 19 25 22 24 23 21 19 16 14 12 12 14 13 13 8
19 20 20 21 20 20 21 23 24 25 26 26 26 26 26 27 27 28 26 25 25 25 22 19 23 22 24 26 20 19 15 12 12 12 12 12 13 8
21 20 19 19 20 21 23 24 26 26 25 24 24 23 23 24 25 26 26 25 25 24 22 15 13 26 23 24 21 18 13 13 14 12 10 10 10 10
20 19 20 20 21 23 24 25 26 25 23 22 22 21 21 22 25 25 24 22 22 22 23 19 7 8 15 15 17 17 14 13 12 11 11 11 10 10
18 19 20 22 24 25 26 27 26 24 22 22 21 21 22 22 22 23 23 22 21 21 22 19 13 9 14 14 15 14 12 12 11 11 11 11 10 5
19 21 24 26 27 27 27 27 26 23 22 21 21 22 21 21 21 22 22 20 21 21 20 19 11 7 15 15 14 14 12 10 10 11 10 9 8 8

GFSNE_850_spd_087.txt.gz
Wind_Speed
39 36 36 31 37 39 33 35 31 24 26 22 21 21 21 23 21 21 21 19 20 20 22 24 24 25 26 28 30 32 33 34 36 36 36 35 36 36
39 36 34 34 33 35 40 31 31 27 28 20 22 23 22 22 20 21 23 22 21 22 23 24 25 24 26 27 29 30 32 34 36 37 38 38 37 37
39 36 34 36 31 36 37 30 29 26 27 27 25 22 22 21 22 24 24 25 25 25 26 27 28 29 31 33 34 36 36 37 39 40 41 40 39 38
39 37 33 32 36 35 31 27 29 26 24 26 24 22 22 23 23 25 27 26 27 28 29 30 32 34 35 35 36 38 39 42 44 45 44 43 42 38
33 34 31 31 39 44 32 26 23 24 26 26 24 22 22 23 23 25 27 29 30 31 33 35 34 34 33 33 34 35 36 38 42 44 44 41 40 40
31 28 31 27 28 29 27 22 23 26 26 22 22 22 21 24 24 25 28 31 34 33 32 32 31 30 28 29 30 31 32 33 35 35 39 41 37 35
33 32 30 28 25 29 25 21 23 23 20 21 22 20 21 22 25 28 31 32 32 30 29 27 27 28 30 30 29 30 30 32 32 34 38 39 39 35
33 32 26 24 28 23 23 22 21 21 20 20 18 19 23 26 27 28 28 26 20 23 25 29 29 30 30 27 28 29 30 31 32 34 39 36 35 31
25 25 24 22 19 19 17 16 17 16 16 17 20 23 25 25 25 26 25 25 23 23 25 31 28 31 27 27 28 26 27 29 32 34 36 33 32 36
19 20 18 16 14 13 13 13 14 16 19 21 21 21 22 23 23 24 25 26 25 24 19 26 23 25 25 24 28 27 24 27 29 29 29 27 25 20
13 12 11 11 11 12 12 13 16 18 19 19 21 21 21 21 22 23 22 21 24 20 20 24 22 22 25 27 24 21 20 25 23 23 24 22 21 20
10 9 10 10 9 10 12 13 14 16 17 18 18 19 20 20 21 21 23 26 25 20 9 15 17 17 26 21 17 18 22 23 22 23 21 23 23 22
9 8 8 7 8 12 15 15 16 19 21 21 20 21 21 20 21 22 24 25 26 24 22 23 21 22 23 31 31 25 22 20 21 17 15 22 24 21
5 7 10 13 16 19 22 22 19 19 20 23 23 23 24 23 22 22 25 26 27 30 30 29 33 25 27 30 31 25 22 19 17 14 11 14 15 17
13 15 16 18 19 18 18 20 23 22 22 22 22 21 23 25 27 28 28 28 30 31 30 27 28 29 26 30 32 29 25 19 17 18 15 14 15 16
16 17 18 18 17 17 17 18 19 21 21 22 22 24 26 25 24 23 26 26 28 28 23 22 21 22 26 28 28 31 29 20 16 21 18 15 15 15
15 16 15 16 15 15 16 18 19 20 20 19 19 18 19 19 20 19 19 20 21 24 23 19 18 21 26 30 32 32 28 24 21 17 18 16 15 14
14 13 12 15 15 13 12 12 14 16 16 18 18 19 20 21 21 20 19 19 21 22 24 21 21 21 20 22 23 29 29 27 26 20 16 15 15 13
11 12 12 13 13 13 13 14 16 16 18 18 20 20 20 21 21 20 19 19 21 22 23 22 20 17 20 21 20 16 27 26 25 22 18 16 14 11
11 11 11 12 13 13 15 16 17 19 21 21 21 21 21 21 20 19 19 20 21 22 23 20 18 17 18 20 23 18 22 27 29 21 17 14 13 14
12 12 12 13 14 16 18 20 22 22 23 23 21 21 19 19 19 19 20 20 21 20 22 22 20 23 21 20 22 22 18 30 27 20 16 14 13 11
15 15 15 17 19 19 20 20 20 21 21 21 21 20 19 18 18 19 19 19 19 20 22 23 22 19 17 19 21 20 12 26 25 20 16 15 12 9
20 21 23 24 24 23 22 21 21 22 22 22 21 19 18 19 18 18 18 19 19 20 21 23 21 19 18 19 19 15 15 28 26 22 18 18 14 12